CAPE
0 23 0 0 0 0 0 0 0 0 10 6 3 14 7 23 42 36 36 22 16 20 72 49 0 0 0 0 0 0 0 0 0 0 0 0 0 0 0 0 3 11 40 46 99 115 186 198 215 225 307 572 660 719 739 791 869 888 804 678 588 508 590 606 584 683 674 772 566 496 518 356 270 442 873 574 344 165 110 94 10 0 0 0 0 0
2 8 0 0 0 0 0 0 0 0 1 0 0 15 44 50 49 45 33 25 2 60 0 43 0 0 0 0 0 0 0 0 0 0 0 0 0 0 1 7 10 4 81 153 140 154 190 184 227 274 410 511 541 674 768 820 900 872 759 626 594 551 582 570 621 553 563 427 367 379 450 525 302 235 354 285 389 231 162 191 54 10 0 0 0 0
7 5 0 0 0 0 5 0 0 0 0 0 0 0 34 4 43 45 29 26 9 48 0 6 0 0 0 0 0 0 0 0 0 0 0 0 0 0 4 3 0 38 124 140 149 182 191 232 288 275 472 511 548 674 763 790 803 760 679 603 556 588 650 604 566 611 564 412 799 454 514 423 332 385 246 305 397 714 345 82 73 126 0 0 0 0
0 0 0 0 0 9 5 1 0 0 0 0 0 0 0 0 0 2 22 15 1 44 0 2 0 0 0 0 0 0 0 0 0 0 0 0 0 2 0 0 0 15 88 144 151 227 190 263 267 465 513 537 572 716 732 724 725 624 563 601 624 592 693 587 974 851 409 528 417 470 559 538 356 358 1842 476 374 313 162 182 108 88 0 0 0 0
0 0 0 0 0 4 10 0 0 0 0 0 0 0 0 0 0 0 6 5 0 0 27 1 0 0 0 0 0 0 0 0 0 0 0 0 0 0 0 0 0 0 26 114 151 205 220 355 282 498 468 526 637 644 686 744 728 594 591 618 584 599 604 558 1053 888 631 863 612 694 748 564 530 839 722 621 520 288 507 886 56 20 102 0 0 0
0 0 0 0 0 1 3 0 0 0 0 0 0 2 0 0 0 0 0 0 0 0 20 0 0 0 0 0 0 0 0 0 0 0 0 0 0 0 0 0 0 0 0 22 174 254 239 269 476 487 487 546 641 629 662 708 726 650 609 527 525 562 538 442 690 462 678 744 535 783 505 143 320 65 18 230 251 280 381 441 83 614 85 86 0 0
0 0 0 2 2 0 3 0 0 0 0 0 0 2 0 3 0 0 13 0 0 9 0 0 0 0 0 14 24 6 0 0 0 0 0 0 0 0 1 3 12 0 0 6 131 107 211 472 488 512 538 624 640 705 700 738 686 635 629 588 564 569 599 528 508 538 668 479 526 583 673 587 484 175 11 4 203 101 354 301 414 206 92 147 23 0
0 0 0 0 0 0 0 0 0 0 4 0 0 0 0 2 4 0 0 0 0 0 0 0 0 0 0 0 0 17 0 0 0 0 0 0 0 0 2 20 26 20 36 45 42 64 282 450 483 575 648 685 694 730 751 716 672 682 656 614 604 619 630 541 568 634 686 518 653 765 662 616 570 428 105 108 470 150 868 369 452 435 69 36 226 1
0 1 0 0 0 0 0 0 0 0 0 0 0 0 0 0 0 0 0 0 0 6 0 0 0 0 0 0 0 0 0 0 0 0 0 0 0 0 16 54 56 71 62 71 244 378 388 437 527 584 622 695 713 778 754 707 704 713 659 641 643 638 578 526 682 672 677 690 809 767 677 557 632 129 61 89 1242 849 744 104 58 281 167 146 61 108
0 0 0 0 0 0 0 0 0 0 0 0 0 0 0 0 0 0 0 0 0 0 0 0 0 0 0 0 0 0 0 0 0 0 0 0 0 0 19 64 113 71 132 320 364 333 434 489 520 602 627 715 686 813 756 687 756 669 650 679 646 709 582 526 668 678 674 820 908 802 846 927 762 684 448 524 615 496 509 56 26 38 220 204 42 0
0 0 0 0 0 1 0 0 0 0 0 0 2 0 0 0 0 0 0 0 0 0 0 0 0 0 0 0 0 0 27 0 0 0 0 0 0 0 30 104 124 327 338 324 300 343 407 502 557 637 669 744 734 764 682 653 646 603 665 690 693 644 575 538 585 694 780 700 819 838 965 958 804 688 649 543 443 146 366 160 86 152 234 47 15 0
0 0 0 0 0 0 0 0 0 0 0 0 0 0 0 0 0 0 0 0 0 0 0 0 0 0 0 0 0 0 0 0 0 0 0 0 0 2 41 114 343 344 349 334 337 476 529 447 543 679 715 766 712 662 675 656 641 621 613 688 704 663 763 790 926 1012 1080 1098 1161 1202 1136 1040 998 945 847 727 615 472 101 95 85 126 76 138 21 0
0 0 0 0 0 0 0 0 0 0 0 0 0 0 0 1 0 0 0 35 0 0 0 0 0 0 0 0 0 0 0 0 0 0 0 0 0 0 27 300 357 352 336 373 504 510 453 497 558 651 747 757 650 635 650 643 640 656 660 699 694 746 801 813 952 1028 1140 1188 1202 1256 1204 1119 972 1012 974 917 870 654 469 269 56 114 96 39 117 59
0 0 0 0 0 0 0 0 0 0 0 0 0 0 0 0 0 0 0 0 0 0 0 0 0 0 1 0 0 0 0 0 0 0 0 0 0 0 0 104 320 341 421 495 485 461 418 454 531 624 656 658 608 597 596 641 676 685 656 721 684 748 798 1092 1055 1137 1184 1216 1272 1300 1142 1045 1112 1082 872 827 751 708 576 508 471 269 209 1 12 12
0 0 0 0 0 0 0 0 0 0 0 0 0 0 0 0 0 0 0 0 0 0 0 0 0 0 0 0 0 0 0 0 0 0 0 0 0 0 1 202 309 402 497 476 481 465 439 348 450 497 539 496 491 563 613 657 681 673 639 644 661 772 895 1228 1231 1216 1201 1111 1095 1151 1058 1013 1048 896 902 871 761 691 594 524 513 464 453 456 448 0
0 2 0 0 0 0 0 0 0 0 0 0 0 0 0 0 0 0 0 0 0 0 0 0 0 0 0 0 0 0 0 0 0 0 0 0 0 1 95 297 386 464 523 512 520 508 462 411 411 463 472 479 446 510 566 574 660 564 628 622 584 707 852 1202 1224 957 918 761 735 804 921 860 866 990 847 744 801 742 569 464 487 485 546 535 279 2
0 0 0 0 0 0 0 0 0 0 0 0 0 0 0 0 0 0 0 0 0 0 0 0 0 0 0 0 0 0 0 0 0 0 0 0 0 44 246 315 436 558 585 553 605 601 601 554 517 480 514 506 551 599 488 427 529 568 601 623 471 504 738 1041 994 792 752 658 589 568 615 735 782 789 746 604 540 541 528 518 519 507 495 584 584 603
0 0 0 0 0 0 0 0 0 0 0 0 0 0 0 0 0 0 0 0 0 0 0 0 0 0 0 0 0 0 0 0 0 0 0 0 59 140 316 372 521 624 648 645 693 726 743 659 534 445 466 526 615 629 557 174 10 91 558 534 150 248 545 880 726 648 638 623 606 581 612 663 659 600 608 505 556 560 603 606 542 178 525 565 566 572
0 0 0 0 0 0 0 0 0 0 0 0 0 0 0 0 0 0 0 0 0 0 0 0 0 0 0 0 0 0 0 0 0 0 0 0 20 104 354 474 610 672 722 729 800 845 786 634 598 468 596 694 612 598 0 0 61 0 0 0 119 207 121 444 624 607 610 608 603 582 157 253 401 38 42 50 245 430 559 488 117 84 96 92 444 630
0 0 0 0 0 0 0 0 0 0 0 0 0 0 0 0 0 0 0 0 0 0 0 0 0 0 0 0 0 0 0 0 0 0 0 0 0 54 406 564 688 728 780 878 869 790 704 648 575 579 574 522 120 46 2 32 55 0 0 68 40 0 0 0 72 228 335 587 609 322 126 29 28 76 71 31 143 538 208 25 5 58 150 143 223 201
0 0 0 0 0 0 0 0 0 0 0 0 0 0 0 0 0 0 0 0 0 0 0 0 0 0 0 0 0 0 0 0 0 0 0 0 0 7 452 591 739 776 873 832 557 405 516 337 507 521 550 138 47 55 132 6 0 0 0 0 1 56 9 0 0 59 88 0 0 31 189 119 33 61 69 118 34 129 15 0 70 40 55 89 118 184
0 0 0 0 0 0 0 0 0 0 0 0 0 0 0 0 0 0 0 0 0 0 0 0 0 0 0 0 0 0 0 0 0 0 0 0 0 52 487 617 696 726 703 555 0 0 0 0 6 513 28 16 80 47 68 0 0 0 0 0 0 0 0 0 0 0 0 0 0 0 0 0 0 0 0 17 0 0 0 0 2 14 12 5 0 0
0 0 0 0 0 0 0 0 0 0 0 0 0 85 0 0 0 0 0 0 0 0 0 0 0 0 0 0 0 0 0 0 0 0 0 0 0 0 408 516 533 547 523 342 0 0 0 0 2 5 0 37 52 34 22 0 0 0 0 0 0 0 0 0 0 0 0 0 14 12 0 0 0 10 45 85 65 154 192 156 526 556 564 546 517 13
1580 0 0 0 0 0 0 0 0 0 0 0 0 0 0 80 0 0 0 0 0 0 0 0 0 0 0 0 0 0 0 0 0 0 0 0 0 0 0 343 441 486 364 4 0 0 0 0 0 0 0 0 0 0 0 0 0 0 0 1 2 0 0 0 1 3 10 6 16 9 9 21 35 66 101 137 67 103 134 522 567 600 604 614 600 549
0 0 0 0 0 0 0 0 0 0 0 0 0 0 0 1 0 0 0 0 0 0 0 0 0 0 0 0 0 0 0 0 0 0 0 0 0 0 0 0 318 327 275 0 0 0 0 0 0 0 0 0 0 0 0 0 0 0 0 0 2 1 0 0 12 41 45 92 101 48 32 38 42 59 57 46 51 231 541 580 602 614 654 678 674 638
0 0 0 0 0 0 19 2 0 9 0 0 296 71 0 0 0 0 3 0 0 0 0 0 0 0 0 0 0 0 0 0 0 0 0 0 0 0 0 0 0 272 264 33 0 0 0 0 0 0 0 0 0 0 0 0 0 0 0 0 0 2 0 0 0 14 34 32 298 448 124 133 124 166 135 130 205 547 554 575 598 653 689 713 731 704
0 0 0 0 0 0 0 0 0 0 0 0 31 2 0 0 0 0 0 0 0 0 0 0 0 0 0 0 0 0 0 0 0 0 0 0 0 0 0 0 0 0 0 1 0 0 0 0 0 0 0 0 0 0 0 0 0 0 0 0 0 0 0 0 0 0 0 14 74 130 441 430 205 201 168 418 627 679 674 659 691 740 770 709 651 667
0 0 0 0 0 0 0 0 0 0 0 0 0 24 0 0 0 0 0 0 0 0 0 0 0 0 0 0 0 0 0 0 0 0 0 0 0 0 0 0 54 0 0 0 0 0 0 0 0 0 0 0 0 0 0 0 0 0 0 0 0 0 0 0 0 0 0 0 2 7 83 47 5 462 590 421 352 317 316 305 417 462 485 470 449 368
0 0 0 0 0 0 0 0 0 0 0 7 0 0 0 0 0 0 0 0 0 0 0 0 0 0 0 0 0 0 0 0 0 0 0 0 0 0 0 2 5 0 0 0 0 0 0 0 0 0 0 0 0 0 0 0 0 0 0 0 0 0 0 0 0 0 0 0 0 0 0 0 0 0 0 0 0 0 0 0 0 52 0 0 0 0
0 0 0 0 0 0 0 0 5 38 0 0 0 0 0 4 0 0 0 0 0 0 0 0 0 1 0 0 0 0 0 0 0 0 0 0 0 4 0 0 8 0 0 0 0 0 0 0 0 0 0 0 0 0 0 0 0 0 0 0 0 2 0 4 3 0 0 0 0 0 0 0 0 0 0 0 0 0 0 0 0 0 0 0 0 0
0 0 0 0 0 0 0 0 0 0 0 0 0 0 0 0 0 0 8 0 0 0 0 0 0 0 0 0 0 0 0 0 0 0 0 0 0 4 0 0 6 0 0 0 0 0 0 29 0 0 0 0 0 0 0 0 0 0 0 0 0 0 0 11 0 1 0 0 0 0 0 0 0 0 0 0 0 0 0 0 0 0 0 0 0 0
0 0 0 0 0 0 0 0 0 0 0 0 0 0 0 0 1 0 76 6 0 0 0 0 0 0 0 0 0 0 0 0 0 0 0 0 0 0 0 0 1 10 0 0 0 0 0 0 0 0 0 0 0 0 0 0 0 0 0 0 0 0 0 3 0 0 0 9 175 0 0 0 0 0 0 0 0 0 0 0 0 0 0 0 0 0
0 0 0 0 0 0 0 0 0 0 0 0 0 0 0 0 0 0 0 0 0 0 0 0 0 0 0 0 0 0 0 0 0 0 0 0 0 0 0 0 0 10 0 0 0 114 122 116 0 0 0 0 0 0 0 0 0 0 0 0 0 0 0 0 0 0 0 0 0 0 0 0 0 0 0 0 0 0 0 0 0 0 0 0 0 0
11 8 0 0 15 0 0 0 0 0 0 0 0 0 0 0 0 0 0 0 0 0 0 0 0 0 0 0 0 0 0 4 0 0 0 0 0 0 0 0 0 0 0 0 0 0 0 0 0 0 0 0 0 0 0 0 0 0 0 0 0 0 0 0 0 0 0 0 0 0 0 0 0 0 0 0 0 0 0 0 0 0 0 0 0 0
41 34 0 0 0 0 0 0 0 0 0 0 0 0 0 0 0 0 0 0 0 0 0 0 0 0 0 0 0 0 0 15 0 0 0 0 0 0 0 0 0 0 0 0 0 0 0 0 0 0 0 0 0 0 0 0 0 0 0 0 0 0 0 0 0 0 0 0 38 85 70 15 16 22 88 0 0 0 0 0 0 0 0 0 0 0
54 40 1 0 0 0 0 0 0 0 0 0 0 0 0 0 0 0 0 0 0 0 0 0 0 0 0 0 0 0 0 0 0 0 0 0 0 0 0 0 0 0 0 0 0 0 0 0 0 0 0 0 0 0 0 0 0 0 0 0 0 0 0 0 0 0 0 0 28 88 113 138 173 138 22 1 0 0 0 0 0 0 0 0 0 0
0 19 4 9 0 4 0 0 0 0 0 0 0 4 0 4 0 0 0 0 0 0 0 0 0 0 0 0 0 0 0 0 7 21 0 0 0 0 0 0 0 2 64 50 1 0 0 0 0 0 0 0 0 0 0 0 0 0 0 0 0 0 0 0 0 0 0 0 0 114 159 100 52 3 1 0 0 0 0 0 0 0 0 0 0 0
0 0 0 7 0 0 0 0 0 0 0 0 0 0 0 0 0 0 0 0 0 0 0 0 0 0 0 0 0 0 0 0 6 0 0 0 0 0 0 0 34 272 562 504 178 75 32 4 1 0 0 0 0 0 0 0 0 0 0 0 0 0 0 0 0 0 0 0 0 0 0 0 0 1 3 1 0 0 0 0 0 0 0 0 0 0
0 0 0 0 0 0 0 0 0 0 0 0 0 0 0 0 0 0 0 0 0 0 0 0 0 0 0 14 2 0 0 0 0 0 0 0 0 68 12 97 499 819 746 575 522 408 398 0 0 0 0 0 0 0 0 0 0 0 0 0 0 0 0 0 0 0 0 0 0 0 0 0 0 1 0 0 0 0 0 0 0 0 0 0 0 0
0 0 0 0 0 0 0 0 0 0 0 0 0 0 0 0 0 0 0 0 0 0 0 0 0 0 0 0 0 0 0 0 0 0 0 0 0 379 420 957 1196 1050 901 687 538 471 416 0 0 0 0 0 0 0 0 0 0 0 0 0 0 0 0 0 0 0 0 0 0 0 0 0 0 0 0 0 0 0 0 0 0 0 0 0 0 0
0 0 0 0 0 0 0 0 0 0 0 254 446 27 0 0 0 0 0 0 0 0 0 0 0 0 0 0 1 43 0 200 0 290 661 110 637 1220 1214 1256 1255 1050 838 651 534 503 468 407 343 159 132 0 0 0 0 0 0 0 0 0 0 0 0 0 0 0 0 0 0 0 0 2 2 0 0 0 0 0 0 0 0 0 0 0 0 0
0 0 0 0 0 0 0 0 0 0 324 26 23 0 0 0 0 0 40 225 373 24 0 0 0 0 5 447 432 5 227 955 1130 508 406 615 1044 1347 1293 1276 1192 969 794 635 550 484 449 397 341 0 0 0 0 0 0 0 12 0 0 0 0 0 0 0 0 0 0 0 0 0 0 0 0 0 0 0 0 0 0 0 0 0 0 0 0 0
226 0 124 0 0 0 0 0 0 0 192 223 34 0 446 0 0 351 890 593 352 45 0 275 645 702 750 851 887 1068 1303 1190 888 252 466 1271 1337 1355 1343 1285 1165 1021 932 774 684 576 463 366 304 171 0 0 0 0 126 207 223 216 170 0 0 0 0 0 0 0 0 0 0 0 0 0 0 0 0 0 0 0 0 0 0 0 0 0 0 0
304 181 78 30 0 0 0 0 83 513 147 478 308 86 931 774 712 805 717 760 728 768 717 742 682 923 1170 1164 1289 1283 1185 1036 952 860 1126 1384 1424 1379 1373 1309 1214 1115 1041 919 829 770 683 672 564 408 44 0 173 238 248 232 227 88 0 0 0 0 0 0 0 0 0 0 0 0 0 0 0 0 0 0 0 0 0 0 0 0 0 0 0 0
620 675 455 316 145 0 0 194 70 501 715 639 643 580 562 706 570 816 659 700 752 743 814 734 619 732 1175 1243 1185 1118 1039 1086 972 995 1178 1421 1423 1435 1402 1343 1283 1180 1166 1097 1069 1002 923 825 663 488 368 360 328 188 56 0 0 0 0 0 0 0 0 0 0 0 0 0 0 0 0 0 5 0 0 0 0 0 0 0 0 0 0 0 0 0
287 597 691 814 81 159 241 298 509 319 400 651 433 668 691 845 743 799 699 587 575 633 665 817 858 834 722 537 378 24 754 1008 1056 1009 1068 1328 1394 1472 1430 1392 1325 1253 1173 1079 984 881 790 658 552 545 652 570 408 229 0 0 0 0 0 0 0 0 0 0 0 0 0 0 0 0 0 0 0 0 0 0 0 0 0 0 0 0 0 0 0 0
262 68 67 108 178 54 181 44 56 56 40 350 502 170 304 705 731 804 893 659 67 0 592 678 789 790 871 756 656 594 634 1034 1063 1066 1042 1187 1316 1308 1305 1239 1175 1105 1030 952 859 758 696 726 805 796 711 535 302 0 0 0 0 0 0 0 0 0 0 0 0 0 0 0 0 0 0 0 0 0 0 0 0 0 0 0 0 0 0 0 0 0
243 169 64 98 116 96 123 87 112 97 82 47 17 17 2 1 8 8 182 103 325 317 93 37 263 46 763 520 1014 964 959 1004 949 1020 1040 1057 1136 1159 1169 1134 1090 1050 998 945 891 976 996 950 836 642 412 183 0 0 0 0 0 0 0 0 0 0 0 0 0 0 0 0 0 0 0 0 0 0 0 0 0 0 0 0 0 0 0 0 0 0
160 99 98 68 78 131 91 106 106 102 102 89 64 37 18 2 12 18 620 263 413 382 17 0 0 357 636 678 793 854 1095 997 987 966 1067 1061 1078 1099 1105 1084 1087 1110 1136 1126 1084 973 856 627 386 156 7 0 0 0 0 0 0 0 0 0 0 0 0 0 0 0 0 0 0 0 0 0 0 0 0 0 0 0 0 0 0 0 0 0 0 0
0 27 117 1 10 0 31 48 51 34 56 47 41 15 16 10 51 76 399 471 209 0 0 0 4 448 579 695 682 748 945 929 924 978 1043 1052 1065 1097 1124 1149 1160 1134 1068 897 894 644 384 109 0 0 0 0 0 0 0 0 0 0 0 0 0 0 0 0 0 0 0 0 0 0 0 0 0 0 0 0 0 0 0 0 0 0 0 0 0 0
1 6 11 0 0 0 0 0 14 6 191 26 14 27 16 2 1 70 78 48 28 8 0 6 21 21 365 1 506 623 783 856 887 906 952 989 976 964 995 981 990 1023 1052 926 586 306 29 0 0 0 0 0 1 1 1 4 0 0 0 0 0 0 0 0 0 0 0 0 0 0 0 0 0 0 0 0 0 0 0 0 0 0 0 0 0 0
Wind_Speed
nan nan nan nan nan nan nan nan nan nan nan nan nan nan nan nan nan nan nan nan nan nan nan nan nan nan nan nan nan nan nan nan nan nan nan nan nan nan nan nan nan nan nan nan nan 17 18 18 17 16 15 16 16 18 18 18 20 21 22 20 22 21 21 21 20 19 19 17 17 16 17 20 20 21 20 20 20 20 21 nan nan nan nan nan nan nan
nan nan nan nan nan nan nan nan nan nan nan nan nan nan nan nan nan nan nan nan nan nan nan nan nan nan nan nan nan nan nan nan nan nan nan nan nan nan nan nan nan nan nan 13 14 15 16 16 16 14 14 14 15 16 17 18 20 21 20 21 22 20 21 22 22 23 21 21 19 18 18 19 20 18 18 18 19 19 20 19 nan nan nan nan nan nan
nan nan nan nan nan nan nan nan nan nan nan nan nan nan nan nan nan nan nan nan nan nan nan nan nan nan nan nan nan nan nan nan nan nan nan nan nan nan nan nan nan nan 15 15 17 16 16 16 15 15 14 15 16 16 18 18 17 17 19 20 20 21 22 22 22 21 20 20 20 19 20 20 20 20 20 20 19 18 19 nan nan 17 nan nan nan nan
nan nan nan nan nan nan nan nan nan nan nan nan nan nan nan nan nan nan nan nan nan nan nan nan nan nan nan nan nan nan nan nan nan nan nan nan nan nan nan nan nan nan nan 18 18 17 15 16 15 14 14 15 13 13 14 15 16 16 18 18 19 20 21 21 21 20 21 20 19 20 19 19 19 19 19 19 18 17 17 19 18 nan nan nan nan nan
nan nan nan nan nan nan nan nan nan nan nan nan nan nan nan nan nan nan nan nan nan nan nan nan nan nan nan nan nan nan nan nan nan nan nan nan nan nan nan nan nan nan nan 19 18 17 15 14 17 17 15 13 13 13 14 14 14 15 17 18 19 19 20 20 19 19 18 17 15 16 17 16 16 16 16 16 16 16 17 18 nan nan 16 nan nan nan
nan nan nan nan nan nan nan nan nan nan nan nan nan nan nan nan nan nan nan nan nan nan nan nan nan nan nan nan nan nan nan nan nan nan nan nan nan nan nan nan nan nan nan nan 21 20 19 18 14 12 12 12 12 13 13 14 14 13 15 16 17 18 18 18 18 17 16 16 15 14 14 14 14 nan nan 16 16 16 15 16 nan 15 nan nan nan nan
nan nan nan nan nan nan nan nan nan nan nan nan nan nan nan nan nan nan nan nan nan nan nan nan nan nan nan nan nan nan nan nan nan nan nan nan nan nan nan nan nan nan nan nan 15 13 14 12 12 11 13 13 12 13 12 11 12 13 14 16 16 17 17 17 16 16 14 13 14 15 16 15 16 15 nan nan 16 16 15 14 14 15 nan 13 nan nan
nan nan nan nan nan nan nan nan nan nan nan nan nan nan nan nan nan nan nan nan nan nan nan nan nan nan nan nan nan nan nan nan nan nan nan nan nan nan nan nan nan nan nan nan nan nan 14 14 14 15 16 14 15 12 11 10 11 12 14 14 15 15 15 16 14 15 15 15 16 15 16 16 17 17 17 17 17 17 15 16 16 15 nan nan 13 nan
nan nan nan nan nan nan nan nan nan nan nan nan nan nan nan nan nan nan nan nan nan nan nan nan nan nan nan nan nan nan nan nan nan nan nan nan nan nan nan nan nan nan nan nan 13 14 14 16 16 15 15 13 11 11 12 11 12 12 13 14 14 15 15 15 14 16 16 15 16 17 16 15 17 17 nan nan 16 17 16 17 nan 15 16 15 nan 13
nan nan nan nan nan nan nan nan nan nan nan nan nan nan nan nan nan nan nan nan nan nan nan nan nan nan nan nan nan nan nan nan nan nan nan nan nan nan nan nan 17 nan 12 13 15 14 14 16 17 15 13 10 11 11 10 9 10 12 12 14 14 15 15 15 15 16 16 16 15 16 16 17 16 15 15 14 15 17 15 nan nan nan 16 17 nan nan
nan nan nan nan nan nan nan nan nan nan nan nan nan nan nan nan nan nan nan nan nan nan nan nan nan nan nan nan nan nan nan nan nan nan nan nan nan nan nan 19 18 14 13 14 14 12 10 11 11 10 12 11 9 9 9 10 12 12 14 14 15 17 16 15 15 15 16 16 16 16 17 17 17 17 16 16 15 15 15 17 nan 17 18 nan nan nan
nan nan nan nan nan nan nan nan nan nan nan nan nan nan nan nan nan nan nan nan nan nan nan nan nan nan nan nan nan nan nan nan nan nan nan nan nan nan nan 18 17 15 15 15 12 10 7 6 8 10 10 10 10 9 11 12 11 13 14 14 15 15 15 14 15 15 15 15 16 16 17 18 18 17 16 17 18 18 19 nan nan 18 nan 18 nan nan
nan nan nan nan nan nan nan nan nan nan nan nan nan nan nan nan nan nan nan nan nan nan nan nan nan nan nan nan nan nan nan nan nan nan nan nan nan nan nan 19 15 15 15 15 12 10 9 9 9 10 11 10 9 12 13 13 12 12 12 14 14 15 15 15 14 15 16 16 16 16 17 18 17 17 18 18 19 19 20 21 nan 19 nan nan 18 nan
nan nan nan nan nan nan nan nan nan nan nan nan nan nan nan nan nan nan nan nan nan nan nan nan nan nan nan nan nan nan nan nan nan nan nan nan nan nan nan 17 16 16 15 13 13 12 11 11 10 11 11 12 12 13 13 11 11 12 12 13 14 16 15 15 14 15 15 16 16 17 17 17 17 18 19 19 20 20 20 21 20 22 22 nan nan nan
nan nan nan nan nan nan nan nan nan nan nan nan nan nan nan nan nan nan nan nan nan nan nan nan nan nan nan nan nan nan nan nan nan nan nan nan nan nan nan 16 15 14 12 13 14 13 13 12 12 12 12 11 11 12 12 11 11 10 12 12 13 14 14 13 14 13 14 15 16 16 17 17 17 18 19 19 20 19 19 18 18 19 19 20 20 nan
nan nan nan nan nan nan nan nan nan nan nan nan nan nan nan nan nan nan nan nan nan nan nan nan nan nan nan nan nan nan nan nan nan nan nan nan nan nan nan 19 17 14 13 13 13 13 13 14 13 12 11 10 8 10 10 11 10 10 12 12 12 14 14 13 13 13 15 16 15 15 16 17 16 16 17 16 16 17 18 19 19 18 18 19 18 nan
nan nan nan nan nan nan nan nan nan nan nan nan nan nan nan nan nan nan nan nan nan nan nan nan nan nan nan nan nan nan nan nan nan nan nan nan nan nan 20 20 18 17 16 14 15 14 14 14 13 13 11 9 7 7 9 9 10 11 11 10 11 11 12 13 13 14 14 14 13 14 15 15 14 16 17 18 18 19 19 18 18 18 18 17 16 16
nan nan nan nan nan nan nan nan nan nan nan nan nan nan nan nan nan nan nan nan nan nan nan nan nan nan nan nan nan nan nan nan nan nan nan nan nan 22 21 20 21 20 18 17 15 14 16 16 15 12 10 9 8 8 7 8 nan nan 10 11 12 11 13 13 12 13 12 13 13 12 13 14 15 17 18 19 20 20 19 19 19 18 17 18 18 18
nan nan nan nan nan nan nan nan nan nan nan nan nan nan nan nan nan nan nan nan nan nan nan nan nan nan nan nan nan nan nan nan nan nan nan nan nan 21 21 20 19 18 16 15 15 15 15 16 15 13 11 9 8 7 nan nan nan nan nan nan 11 13 14 15 14 13 13 13 12 13 14 16 17 nan nan nan 20 20 21 21 22 nan nan nan 18 18
nan nan nan nan nan nan nan nan nan nan nan nan nan nan nan nan nan nan nan nan nan nan nan nan nan nan nan nan nan nan nan nan nan nan nan nan nan nan 22 20 19 19 18 17 17 16 17 18 17 15 12 9 8 nan nan nan nan nan nan nan nan nan nan nan nan 13 13 14 14 14 14 nan nan nan nan nan 20 21 23 nan nan nan 23 23 21 20
nan nan nan nan nan nan nan nan nan nan nan nan nan nan nan nan nan nan nan nan nan nan nan nan nan nan nan nan nan nan nan nan nan nan nan nan nan nan 23 22 19 19 19 18 19 18 18 19 18 16 13 11 nan nan 7 nan nan nan nan nan nan nan nan nan nan nan nan nan nan nan 16 17 nan nan nan 19 nan 23 nan nan nan nan nan nan 22 22
nan nan nan nan nan nan nan nan nan nan nan nan nan nan nan nan nan nan nan nan nan nan nan nan nan nan nan nan nan nan nan nan nan nan nan nan nan nan 21 21 20 19 18 18 nan nan nan nan nan 16 nan nan nan nan nan nan nan nan nan nan nan nan nan nan nan nan nan nan nan nan nan nan nan nan nan nan nan nan nan nan nan nan nan nan nan nan
nan nan nan nan nan nan nan nan nan nan nan nan nan nan nan nan nan nan nan nan nan nan nan nan nan nan nan nan nan nan nan nan nan nan nan nan nan nan 21 20 18 20 19 18 nan nan nan nan nan nan nan nan nan nan nan nan nan nan nan nan nan nan nan nan nan nan nan nan nan nan nan nan nan nan nan nan nan 25 27 28 28 28 28 25 22 nan
21 nan nan nan nan nan nan nan nan nan nan nan nan nan nan nan nan nan nan nan nan nan nan nan nan nan nan nan nan nan nan nan nan nan nan nan nan nan nan 18 17 15 14 nan nan nan nan nan nan nan nan nan nan nan nan nan nan nan nan nan nan nan nan nan nan nan nan nan nan nan nan nan nan nan 20 22 nan 25 26 28 28 29 28 25 23 22
nan nan nan nan nan nan nan nan nan nan nan nan nan nan nan nan nan nan nan nan nan nan nan nan nan nan nan nan nan nan nan nan nan nan nan nan nan nan nan nan 17 16 15 nan nan nan nan nan nan nan nan nan nan nan nan nan nan nan nan nan nan nan nan nan nan nan nan nan 16 nan nan nan nan nan nan nan nan 25 27 28 29 28 28 26 24 24
nan nan nan nan nan nan nan nan nan nan nan nan 8 nan nan nan nan nan nan nan nan nan nan nan nan nan nan nan nan nan nan nan nan nan nan nan nan nan nan nan nan 18 18 nan nan nan nan nan nan nan nan nan nan nan nan nan nan nan nan nan nan nan nan nan nan nan nan nan 17 17 18 18 18 19 20 22 25 26 26 25 25 25 24 23 21 20
nan nan nan nan nan nan nan nan nan nan nan nan nan nan nan nan nan nan nan nan nan nan nan nan nan nan nan nan nan nan nan nan nan nan nan nan nan nan nan nan nan nan nan nan nan nan nan nan nan nan nan nan nan nan nan nan nan nan nan nan nan nan nan nan nan nan nan nan nan 17 16 17 19 19 18 17 18 21 23 24 26 27 27 27 27 26
nan nan nan nan nan nan nan nan nan nan nan nan nan nan nan nan nan nan nan nan nan nan nan nan nan nan nan nan nan nan nan nan nan nan nan nan nan nan nan nan nan nan nan nan nan nan nan nan nan nan nan nan nan nan nan nan nan nan nan nan nan nan nan nan nan nan nan nan nan nan nan nan nan 15 20 22 23 24 24 26 27 29 30 31 29 27
nan nan nan nan nan nan nan nan nan nan nan nan nan nan nan nan nan nan nan nan nan nan nan nan nan nan nan nan nan nan nan nan nan nan nan nan nan nan nan nan nan nan nan nan nan nan nan nan nan nan nan nan nan nan nan nan nan nan nan nan nan nan nan nan nan nan nan nan nan nan nan nan nan nan nan nan nan nan nan nan nan nan nan nan nan nan
nan nan nan nan nan nan nan nan nan nan nan nan nan nan nan nan nan nan nan nan nan nan nan nan nan nan nan nan nan nan nan nan nan nan nan nan nan nan nan nan nan nan nan nan nan nan nan nan nan nan nan nan nan nan nan nan nan nan nan nan nan nan nan nan nan nan nan nan nan nan nan nan nan nan nan nan nan nan nan nan nan nan nan nan nan nan
nan nan nan nan nan nan nan nan nan nan nan nan nan nan nan nan nan nan nan nan nan nan nan nan nan nan nan nan nan nan nan nan nan nan nan nan nan nan nan nan nan nan nan nan nan nan nan nan nan nan nan nan nan nan nan nan nan nan nan nan nan nan nan nan nan nan nan nan nan nan nan nan nan nan nan nan nan nan nan nan nan nan nan nan nan nan
nan nan nan nan nan nan nan nan nan nan nan nan nan nan nan nan nan nan nan nan nan nan nan nan nan nan nan nan nan nan nan nan nan nan nan nan nan nan nan nan nan nan nan nan nan nan nan nan nan nan nan nan nan nan nan nan nan nan nan nan nan nan nan nan nan nan nan nan 27 nan nan nan nan nan nan nan nan nan nan nan nan nan nan nan nan nan
nan nan nan nan nan nan nan nan nan nan nan nan nan nan nan nan nan nan nan nan nan nan nan nan nan nan nan nan nan nan nan nan nan nan nan nan nan nan nan nan nan nan nan nan nan 18 17 16 nan nan nan nan nan nan nan nan nan nan nan nan nan nan nan nan nan nan nan nan nan nan nan nan nan nan nan nan nan nan nan nan nan nan nan nan nan nan
nan nan nan nan nan nan nan nan nan nan nan nan nan nan nan nan nan nan nan nan nan nan nan nan nan nan nan nan nan nan nan nan nan nan nan nan nan nan nan nan nan nan nan nan nan nan nan nan nan nan nan nan nan nan nan nan nan nan nan nan nan nan nan nan nan nan nan nan nan nan nan nan nan nan nan nan nan nan nan nan nan nan nan nan nan nan
nan nan nan nan nan nan nan nan nan nan nan nan nan nan nan nan nan nan nan nan nan nan nan nan nan nan nan nan nan nan nan nan nan nan nan nan nan nan nan nan nan nan nan nan nan nan nan nan nan nan nan nan nan nan nan nan nan nan nan nan nan nan nan nan nan nan nan nan nan nan nan nan nan nan nan nan nan nan nan nan nan nan nan nan nan nan
nan nan nan nan nan nan nan nan nan nan nan nan nan nan nan nan nan nan nan nan nan nan nan nan nan nan nan nan nan nan nan nan nan nan nan nan nan nan nan nan nan nan nan nan nan nan nan nan nan nan nan nan nan nan nan nan nan nan nan nan nan nan nan nan nan nan nan nan nan nan 32 33 35 35 nan nan nan nan nan nan nan nan nan nan nan nan
nan nan nan nan nan nan nan nan nan nan nan nan nan nan nan nan nan nan nan nan nan nan nan nan nan nan nan nan nan nan nan nan nan nan nan nan nan nan nan nan nan nan nan nan nan nan nan nan nan nan nan nan nan nan nan nan nan nan nan nan nan nan nan nan nan nan nan nan nan 33 33 34 nan nan nan nan nan nan nan nan nan nan nan nan nan nan
nan nan nan nan nan nan nan nan nan nan nan nan nan nan nan nan nan nan nan nan nan nan nan nan nan nan nan nan nan nan nan nan nan nan nan nan nan nan nan nan nan 22 23 25 23 nan nan nan nan nan nan nan nan nan nan nan nan nan nan nan nan nan nan nan nan nan nan nan nan nan nan nan nan nan nan nan nan nan nan nan nan nan nan nan nan nan
nan nan nan nan nan nan nan nan nan nan nan nan nan nan nan nan nan nan nan nan nan nan nan nan nan nan nan nan nan nan nan nan nan nan nan nan nan nan nan nan 23 23 25 28 34 35 33 nan nan nan nan nan nan nan nan nan nan nan nan nan nan nan nan nan nan nan nan nan nan nan nan nan nan nan nan nan nan nan nan nan nan nan nan nan nan nan
nan nan nan nan nan nan nan nan nan nan nan nan nan nan nan nan nan nan nan nan nan nan nan nan nan nan nan nan nan nan nan nan nan nan nan nan nan 20 24 30 28 27 27 28 29 34 35 nan nan nan nan nan nan nan nan nan nan nan nan nan nan nan nan nan nan nan nan nan nan nan nan nan nan nan nan nan nan nan nan nan nan nan nan nan nan nan
nan nan nan nan nan nan nan nan nan nan nan 26 24 nan nan nan nan nan nan nan nan nan nan nan nan nan nan nan nan nan nan 24 nan 22 23 29 30 27 24 24 26 27 31 32 33 32 34 33 37 37 37 nan nan nan nan nan nan nan nan nan nan nan nan nan nan nan nan nan nan nan nan nan nan nan nan nan nan nan nan nan nan nan nan nan nan nan
nan nan nan nan nan nan nan nan nan nan 29 nan nan nan nan nan nan nan nan 26 24 nan nan nan nan nan nan 28 25 nan 24 22 24 27 29 29 32 29 30 30 31 30 27 28 31 35 37 39 40 nan nan nan nan nan nan nan nan nan nan nan nan nan nan nan nan nan nan nan nan nan nan nan nan nan nan nan nan nan nan nan nan nan nan nan nan nan
36 nan 36 nan nan nan nan nan nan nan 33 34 nan nan 35 nan nan 30 28 28 26 nan nan 25 27 24 27 26 26 30 30 29 31 32 32 34 35 35 34 34 35 35 35 35 35 36 44 43 42 41 nan nan nan nan 40 45 45 43 44 nan nan nan nan nan nan nan nan nan nan nan nan nan nan nan nan nan nan nan nan nan nan nan nan nan nan nan
38 39 nan nan nan nan nan nan nan 33 29 31 34 nan 31 33 31 32 35 32 28 29 27 28 27 26 26 33 30 30 31 34 32 33 34 35 35 34 34 35 37 38 37 36 40 40 45 44 41 40 nan nan 37 38 41 47 46 nan nan nan nan nan nan nan nan nan nan nan nan nan nan nan nan nan nan nan nan nan nan nan nan nan nan nan nan nan
39 39 38 39 38 nan nan 36 nan 34 32 31 35 33 32 31 33 35 37 33 33 31 29 32 31 30 31 33 33 33 31 29 31 33 37 34 37 39 40 41 43 44 44 44 41 40 41 44 43 41 38 37 38 39 nan nan nan nan nan nan nan nan nan nan nan nan nan nan nan nan nan nan nan nan nan nan nan nan nan nan nan nan nan nan nan nan
40 39 40 42 nan 40 40 39 37 36 36 37 36 35 35 33 34 40 42 39 34 33 34 36 34 34 31 31 34 nan 33 33 35 32 35 37 38 38 41 43 42 42 43 43 40 40 42 41 42 42 41 38 38 40 nan nan nan nan nan nan nan nan nan nan nan nan nan nan nan nan nan nan nan nan nan nan nan nan nan nan nan nan nan nan nan nan
41 nan nan 42 40 nan 40 nan nan nan nan 38 38 37 41 41 41 40 42 41 nan nan 41 40 40 41 36 34 32 34 36 36 37 37 39 40 42 42 42 45 44 45 46 45 43 44 44 42 42 42 42 41 39 nan nan nan nan nan nan nan nan nan nan nan nan nan nan nan nan nan nan nan nan nan nan nan nan nan nan nan nan nan nan nan nan nan
43 44 nan nan 42 nan 40 nan 38 nan nan nan nan nan nan nan nan nan 40 38 38 38 nan nan 46 nan 39 39 35 37 39 38 41 42 40 41 42 42 43 44 45 43 41 44 43 44 44 43 43 43 43 43 nan nan nan nan nan nan nan nan nan nan nan nan nan nan nan nan nan nan nan nan nan nan nan nan nan nan nan nan nan nan nan nan nan nan
41 nan nan nan nan 41 nan 41 41 44 44 nan nan nan nan nan nan nan 43 42 41 45 nan nan nan 45 44 40 37 41 42 42 40 43 43 40 41 41 41 42 42 44 44 44 43 44 45 44 46 46 nan nan nan nan nan nan nan nan nan nan nan nan nan nan nan nan nan nan nan nan nan nan nan nan nan nan nan nan nan nan nan nan nan nan nan nan
nan nan 45 nan nan nan nan nan nan nan nan nan nan nan nan nan nan nan 46 48 46 nan nan nan nan 43 43 43 44 44 44 44 44 41 42 41 41 41 41 43 43 44 43 43 44 44 45 46 nan nan nan nan nan nan nan nan nan nan nan nan nan nan nan nan nan nan nan nan nan nan nan nan nan nan nan nan nan nan nan nan nan nan nan nan nan nan
nan nan nan nan nan nan nan nan nan nan 45 nan nan nan nan nan nan nan nan nan nan nan nan nan nan nan 42 nan 41 45 44 46 45 44 42 41 40 41 44 46 44 43 44 44 47 46 nan nan nan nan nan nan nan nan nan nan nan nan nan nan nan nan nan nan nan nan nan nan nan nan nan nan nan nan nan nan nan nan nan nan nan nan nan nan nan nan
Wind_Direction
nan nan nan nan nan nan nan nan nan nan nan nan nan nan nan nan nan nan nan nan nan nan nan nan nan nan nan nan nan nan nan nan nan nan nan nan nan nan nan nan nan nan nan nan nan 3 5 9 10 10 13 18 23 24 26 27 30 30 31 33 39 42 41 40 44 46 47 48 50 49 52 53 55 57 54 55 56 54 58 nan nan nan nan nan nan nan
nan nan nan nan nan nan nan nan nan nan nan nan nan nan nan nan nan nan nan nan nan nan nan nan nan nan nan nan nan nan nan nan nan nan nan nan nan nan nan nan nan nan nan 354 359 4 1 5 6 6 9 12 16 31 26 28 32 33 33 33 38 42 43 44 43 46 46 47 47 49 52 52 55 53 49 52 51 49 52 57 nan nan nan nan nan nan
nan nan nan nan nan nan nan nan nan nan nan nan nan nan nan nan nan nan nan nan nan nan nan nan nan nan nan nan nan nan nan nan nan nan nan nan nan nan nan nan nan nan 5 5 3 4 2 0 2 3 9 15 15 22 26 33 33 34 36 39 40 41 44 47 46 44 50 53 53 52 54 50 56 55 56 52 50 50 48 nan nan 43 nan nan nan nan
nan nan nan nan nan nan nan nan nan nan nan nan nan nan nan nan nan nan nan nan nan nan nan nan nan nan nan nan nan nan nan nan nan nan nan nan nan nan nan nan nan nan nan 3 4 8 7 1 2 4 9 15 16 19 29 32 33 35 38 40 41 43 44 46 49 46 50 49 51 51 50 55 53 54 52 55 52 50 50 54 55 nan nan nan nan nan
nan nan nan nan nan nan nan nan nan nan nan nan nan nan nan nan nan nan nan nan nan nan nan nan nan nan nan nan nan nan nan nan nan nan nan nan nan nan nan nan nan nan nan 2 5 6 6 5 6 8 12 10 12 21 26 32 36 37 35 37 38 40 42 45 44 43 41 46 46 49 51 50 50 49 50 49 54 53 53 54 nan nan 48 nan nan nan
nan nan nan nan nan nan nan nan nan nan nan nan nan nan nan nan nan nan nan nan nan nan nan nan nan nan nan nan nan nan nan nan nan nan nan nan nan nan nan nan nan nan nan nan 3 3 7 10 3 5 8 12 17 24 31 31 36 35 39 38 40 39 41 40 40 37 34 35 33 38 41 43 40 nan nan 42 43 47 48 45 nan 56 nan nan nan nan
nan nan nan nan nan nan nan nan nan nan nan nan nan nan nan nan nan nan nan nan nan nan nan nan nan nan nan nan nan nan nan nan nan nan nan nan nan nan nan nan nan nan nan nan 3 359 4 10 2 9 13 15 18 34 33 35 38 38 38 40 39 37 39 42 34 34 28 28 28 29 31 29 30 33 nan nan 40 36 45 48 47 50 nan 46 nan nan
nan nan nan nan nan nan nan nan nan nan nan nan nan nan nan nan nan nan nan nan nan nan nan nan nan nan nan nan nan nan nan nan nan nan nan nan nan nan nan nan nan nan nan nan nan nan 10 11 11 16 18 16 22 31 32 36 41 39 40 40 40 39 37 38 29 29 26 27 32 32 35 32 34 32 40 43 43 40 40 37 43 49 nan nan 42 nan
nan nan nan nan nan nan nan nan nan nan nan nan nan nan nan nan nan nan nan nan nan nan nan nan nan nan nan nan nan nan nan nan nan nan nan nan nan nan nan nan nan nan nan nan 22 16 14 16 24 20 19 24 22 23 25 32 42 41 42 40 40 39 39 40 32 29 34 31 34 36 35 40 43 39 nan nan 43 38 41 37 nan 49 51 55 nan 39
nan nan nan nan nan nan nan nan nan nan nan nan nan nan nan nan nan nan nan nan nan nan nan nan nan nan nan nan nan nan nan nan nan nan nan nan nan nan nan nan 16 nan 22 34 31 25 20 20 24 22 15 15 27 27 27 33 39 40 42 41 40 45 43 43 38 35 37 41 39 37 39 42 51 50 50 42 43 45 44 nan nan nan 51 50 nan nan
nan nan nan nan nan nan nan nan nan nan nan nan nan nan nan nan nan nan nan nan nan nan nan nan nan nan nan nan nan nan nan nan nan nan nan nan nan nan nan 12 16 21 30 35 37 38 29 37 22 11 13 20 31 32 31 34 35 39 41 41 43 47 46 44 40 37 41 45 43 43 43 45 50 54 50 51 53 51 47 48 nan 44 42 nan nan nan
nan nan nan nan nan nan nan nan nan nan nan nan nan nan nan nan nan nan nan nan nan nan nan nan nan nan nan nan nan nan nan nan nan nan nan nan nan nan nan 21 19 18 27 30 32 34 25 29 24 14 12 21 32 33 37 39 40 41 44 43 46 53 51 48 46 43 45 43 47 46 44 45 46 44 41 41 45 47 43 nan nan 40 nan 40 nan nan
nan nan nan nan nan nan nan nan nan nan nan nan nan nan nan nan nan nan nan nan nan nan nan nan nan nan nan nan nan nan nan nan nan nan nan nan nan nan nan 15 20 22 18 19 23 24 26 18 16 14 13 21 32 41 40 39 43 45 45 45 46 53 55 52 47 45 49 46 45 41 42 45 43 43 41 39 39 38 35 35 nan 33 nan nan 35 nan
nan nan nan nan nan nan nan nan nan nan nan nan nan nan nan nan nan nan nan nan nan nan nan nan nan nan nan nan nan nan nan nan nan nan nan nan nan nan nan 7 14 23 16 15 19 24 23 19 20 18 18 20 31 41 42 44 43 47 48 48 42 50 51 49 43 44 46 48 46 43 43 44 42 41 39 40 38 38 32 27 26 25 26 nan nan nan
nan nan nan nan nan nan nan nan nan nan nan nan nan nan nan nan nan nan nan nan nan nan nan nan nan nan nan nan nan nan nan nan nan nan nan nan nan nan nan 359 11 18 22 18 25 25 23 18 16 20 22 26 28 32 39 42 43 43 51 48 47 49 54 51 47 46 47 51 49 45 43 41 38 39 40 39 36 36 33 33 25 25 21 21 24 nan
nan nan nan nan nan nan nan nan nan nan nan nan nan nan nan nan nan nan nan nan nan nan nan nan nan nan nan nan nan nan nan nan nan nan nan nan nan nan nan 2 10 17 19 25 26 26 25 18 15 16 22 27 28 21 31 32 36 38 45 46 43 38 41 45 44 43 42 46 43 41 41 43 38 40 37 38 34 32 27 25 20 22 17 17 15 nan
nan nan nan nan nan nan nan nan nan nan nan nan nan nan nan nan nan nan nan nan nan nan nan nan nan nan nan nan nan nan nan nan nan nan nan nan nan nan 6 3 5 12 16 19 21 17 17 16 11 9 12 19 23 28 28 18 24 31 38 40 44 46 41 38 40 39 39 41 38 41 39 38 34 31 28 27 26 26 23 18 16 14 13 9 6 9
nan nan nan nan nan nan nan nan nan nan nan nan nan nan nan nan nan nan nan nan nan nan nan nan nan nan nan nan nan nan nan nan nan nan nan nan nan 359 10 3 360 8 13 14 13 9 9 7 2 4 6 3 12 21 30 36 nan nan 23 28 27 30 31 37 34 36 33 33 34 36 33 29 23 19 20 18 18 17 11 12 10 8 8 7 5 0
nan nan nan nan nan nan nan nan nan nan nan nan nan nan nan nan nan nan nan nan nan nan nan nan nan nan nan nan nan nan nan nan nan nan nan nan nan 359 11 4 357 1 4 4 4 1 2 3 0 357 358 359 359 7 nan nan nan nan nan nan 12 16 25 24 24 25 25 20 20 18 17 14 15 nan nan nan 9 4 1 5 4 nan nan nan 359 359
nan nan nan nan nan nan nan nan nan nan nan nan nan nan nan nan nan nan nan nan nan nan nan nan nan nan nan nan nan nan nan nan nan nan nan nan nan nan 5 2 355 357 1 359 358 357 358 4 3 358 354 357 352 nan nan nan nan nan nan nan nan nan nan nan nan 16 16 15 10 10 8 nan nan nan nan nan 358 359 360 nan nan nan 357 2 1 0
nan nan nan nan nan nan nan nan nan nan nan nan nan nan nan nan nan nan nan nan nan nan nan nan nan nan nan nan nan nan nan nan nan nan nan nan nan nan 356 358 356 357 358 357 355 352 357 5 6 1 0 1 nan nan 358 nan nan nan nan nan nan nan nan nan nan nan nan nan nan nan 1 4 nan nan nan 360 nan 356 nan nan nan nan nan nan 357 358
nan nan nan nan nan nan nan nan nan nan nan nan nan nan nan nan nan nan nan nan nan nan nan nan nan nan nan nan nan nan nan nan nan nan nan nan nan nan 353 357 355 355 358 354 nan nan nan nan nan 0 nan nan nan nan nan nan nan nan nan nan nan nan nan nan nan nan nan nan nan nan nan nan nan nan nan nan nan nan nan nan nan nan nan nan nan nan
nan nan nan nan nan nan nan nan nan nan nan nan nan nan nan nan nan nan nan nan nan nan nan nan nan nan nan nan nan nan nan nan nan nan nan nan nan nan 351 356 357 352 352 354 nan nan nan nan nan nan nan nan nan nan nan nan nan nan nan nan nan nan nan nan nan nan nan nan nan nan nan nan nan nan nan nan nan 358 357 355 354 348 346 347 348 nan
219 nan nan nan nan nan nan nan nan nan nan nan nan nan nan nan nan nan nan nan nan nan nan nan nan nan nan nan nan nan nan nan nan nan nan nan nan nan nan 350 349 347 351 nan nan nan nan nan nan nan nan nan nan nan nan nan nan nan nan nan nan nan nan nan nan nan nan nan nan nan nan nan nan nan 356 357 nan 354 354 354 354 349 345 342 338 345
nan nan nan nan nan nan nan nan nan nan nan nan nan nan nan nan nan nan nan nan nan nan nan nan nan nan nan nan nan nan nan nan nan nan nan nan nan nan nan nan 344 341 340 nan nan nan nan nan nan nan nan nan nan nan nan nan nan nan nan nan nan nan nan nan nan nan nan nan 354 nan nan nan nan nan nan nan nan 354 355 355 355 351 349 342 338 340
nan nan nan nan nan nan nan nan nan nan nan nan 244 nan nan nan nan nan nan nan nan nan nan nan nan nan nan nan nan nan nan nan nan nan nan nan nan nan nan nan nan 333 342 nan nan nan nan nan nan nan nan nan nan nan nan nan nan nan nan nan nan nan nan nan nan nan nan nan 352 352 351 357 356 357 357 356 354 356 354 350 347 347 342 333 328 318
nan nan nan nan nan nan nan nan nan nan nan nan nan nan nan nan nan nan nan nan nan nan nan nan nan nan nan nan nan nan nan nan nan nan nan nan nan nan nan nan nan nan nan nan nan nan nan nan nan nan nan nan nan nan nan nan nan nan nan nan nan nan nan nan nan nan nan nan nan 347 348 354 359 356 350 342 338 335 333 335 336 332 329 326 318 313
nan nan nan nan nan nan nan nan nan nan nan nan nan nan nan nan nan nan nan nan nan nan nan nan nan nan nan nan nan nan nan nan nan nan nan nan nan nan nan nan nan nan nan nan nan nan nan nan nan nan nan nan nan nan nan nan nan nan nan nan nan nan nan nan nan nan nan nan nan nan nan nan nan 324 327 327 324 320 321 323 325 327 327 321 314 312
nan nan nan nan nan nan nan nan nan nan nan nan nan nan nan nan nan nan nan nan nan nan nan nan nan nan nan nan nan nan nan nan nan nan nan nan nan nan nan nan nan nan nan nan nan nan nan nan nan nan nan nan nan nan nan nan nan nan nan nan nan nan nan nan nan nan nan nan nan nan nan nan nan nan nan nan nan nan nan nan nan nan nan nan nan nan
nan nan nan nan nan nan nan nan nan nan nan nan nan nan nan nan nan nan nan nan nan nan nan nan nan nan nan nan nan nan nan nan nan nan nan nan nan nan nan nan nan nan nan nan nan nan nan nan nan nan nan nan nan nan nan nan nan nan nan nan nan nan nan nan nan nan nan nan nan nan nan nan nan nan nan nan nan nan nan nan nan nan nan nan nan nan
nan nan nan nan nan nan nan nan nan nan nan nan nan nan nan nan nan nan nan nan nan nan nan nan nan nan nan nan nan nan nan nan nan nan nan nan nan nan nan nan nan nan nan nan nan nan nan nan nan nan nan nan nan nan nan nan nan nan nan nan nan nan nan nan nan nan nan nan nan nan nan nan nan nan nan nan nan nan nan nan nan nan nan nan nan nan
nan nan nan nan nan nan nan nan nan nan nan nan nan nan nan nan nan nan nan nan nan nan nan nan nan nan nan nan nan nan nan nan nan nan nan nan nan nan nan nan nan nan nan nan nan nan nan nan nan nan nan nan nan nan nan nan nan nan nan nan nan nan nan nan nan nan nan nan 301 nan nan nan nan nan nan nan nan nan nan nan nan nan nan nan nan nan
nan nan nan nan nan nan nan nan nan nan nan nan nan nan nan nan nan nan nan nan nan nan nan nan nan nan nan nan nan nan nan nan nan nan nan nan nan nan nan nan nan nan nan nan nan 334 333 335 nan nan nan nan nan nan nan nan nan nan nan nan nan nan nan nan nan nan nan nan nan nan nan nan nan nan nan nan nan nan nan nan nan nan nan nan nan nan
nan nan nan nan nan nan nan nan nan nan nan nan nan nan nan nan nan nan nan nan nan nan nan nan nan nan nan nan nan nan nan nan nan nan nan nan nan nan nan nan nan nan nan nan nan nan nan nan nan nan nan nan nan nan nan nan nan nan nan nan nan nan nan nan nan nan nan nan nan nan nan nan nan nan nan nan nan nan nan nan nan nan nan nan nan nan
nan nan nan nan nan nan nan nan nan nan nan nan nan nan nan nan nan nan nan nan nan nan nan nan nan nan nan nan nan nan nan nan nan nan nan nan nan nan nan nan nan nan nan nan nan nan nan nan nan nan nan nan nan nan nan nan nan nan nan nan nan nan nan nan nan nan nan nan nan nan nan nan nan nan nan nan nan nan nan nan nan nan nan nan nan nan
nan nan nan nan nan nan nan nan nan nan nan nan nan nan nan nan nan nan nan nan nan nan nan nan nan nan nan nan nan nan nan nan nan nan nan nan nan nan nan nan nan nan nan nan nan nan nan nan nan nan nan nan nan nan nan nan nan nan nan nan nan nan nan nan nan nan nan nan nan nan 298 296 295 295 nan nan nan nan nan nan nan nan nan nan nan nan
nan nan nan nan nan nan nan nan nan nan nan nan nan nan nan nan nan nan nan nan nan nan nan nan nan nan nan nan nan nan nan nan nan nan nan nan nan nan nan nan nan nan nan nan nan nan nan nan nan nan nan nan nan nan nan nan nan nan nan nan nan nan nan nan nan nan nan nan nan 294 291 291 nan nan nan nan nan nan nan nan nan nan nan nan nan nan
nan nan nan nan nan nan nan nan nan nan nan nan nan nan nan nan nan nan nan nan nan nan nan nan nan nan nan nan nan nan nan nan nan nan nan nan nan nan nan nan nan 301 296 292 290 nan nan nan nan nan nan nan nan nan nan nan nan nan nan nan nan nan nan nan nan nan nan nan nan nan nan nan nan nan nan nan nan nan nan nan nan nan nan nan nan nan
nan nan nan nan nan nan nan nan nan nan nan nan nan nan nan nan nan nan nan nan nan nan nan nan nan nan nan nan nan nan nan nan nan nan nan nan nan nan nan nan 294 297 296 298 302 300 300 nan nan nan nan nan nan nan nan nan nan nan nan nan nan nan nan nan nan nan nan nan nan nan nan nan nan nan nan nan nan nan nan nan nan nan nan nan nan nan
nan nan nan nan nan nan nan nan nan nan nan nan nan nan nan nan nan nan nan nan nan nan nan nan nan nan nan nan nan nan nan nan nan nan nan nan nan 288 299 300 296 294 288 285 286 294 298 nan nan nan nan nan nan nan nan nan nan nan nan nan nan nan nan nan nan nan nan nan nan nan nan nan nan nan nan nan nan nan nan nan nan nan nan nan nan nan
nan nan nan nan nan nan nan nan nan nan nan 248 245 nan nan nan nan nan nan nan nan nan nan nan nan nan nan nan nan nan nan 299 nan 298 287 293 290 287 283 285 290 294 295 292 293 292 290 290 292 292 292 nan nan nan nan nan nan nan nan nan nan nan nan nan nan nan nan nan nan nan nan nan nan nan nan nan nan nan nan nan nan nan nan nan nan nan
nan nan nan nan nan nan nan nan nan nan 249 nan nan nan nan nan nan nan nan 272 274 nan nan nan nan nan nan 286 285 nan 290 286 283 286 289 291 295 293 291 290 287 280 277 281 287 288 289 290 290 nan nan nan nan nan nan nan nan nan nan nan nan nan nan nan nan nan nan nan nan nan nan nan nan nan nan nan nan nan nan nan nan nan nan nan nan nan
238 nan 241 nan nan nan nan nan nan nan 250 243 nan nan 252 nan nan 268 266 263 269 nan nan 271 275 280 280 275 279 283 282 278 283 287 290 290 291 292 293 293 292 292 292 288 284 286 291 291 290 289 nan nan nan nan 292 292 292 294 295 nan nan nan nan nan nan nan nan nan nan nan nan nan nan nan nan nan nan nan nan nan nan nan nan nan nan nan
242 241 nan nan nan nan nan nan nan 256 257 248 252 nan 259 266 266 268 274 266 267 274 271 267 265 270 272 279 278 274 277 280 278 283 283 285 286 286 287 288 289 289 287 286 289 292 290 290 289 288 nan nan 288 290 293 293 294 nan nan nan nan nan nan nan nan nan nan nan nan nan nan nan nan nan nan nan nan nan nan nan nan nan nan nan nan nan
242 244 248 243 244 nan nan 250 nan 250 252 253 255 258 264 263 265 268 267 271 273 270 274 270 264 265 270 273 273 276 273 275 284 290 291 291 292 294 295 296 296 296 296 295 294 292 290 291 290 288 287 288 288 289 nan nan nan nan nan nan nan nan nan nan nan nan nan nan nan nan nan nan nan nan nan nan nan nan nan nan nan nan nan nan nan nan
241 244 246 246 nan 245 247 249 248 249 250 246 250 257 259 255 256 261 263 262 264 269 270 274 272 268 267 267 267 nan 272 276 280 279 282 284 284 283 286 287 288 290 291 291 290 290 289 288 288 289 289 286 285 287 nan nan nan nan nan nan nan nan nan nan nan nan nan nan nan nan nan nan nan nan nan nan nan nan nan nan nan nan nan nan nan nan
239 nan nan 246 245 nan 246 nan nan nan nan 250 251 251 258 260 260 255 253 257 nan nan 267 267 266 261 259 262 266 272 273 274 279 282 283 283 286 288 288 289 290 293 293 292 292 290 288 288 288 289 288 286 284 nan nan nan nan nan nan nan nan nan nan nan nan nan nan nan nan nan nan nan nan nan nan nan nan nan nan nan nan nan nan nan nan nan
239 243 nan nan 246 nan 248 nan 244 nan nan nan nan nan nan nan nan nan 263 263 269 273 nan nan 267 nan 259 260 264 267 267 266 277 284 284 286 288 287 288 290 290 286 285 288 289 289 287 288 290 289 287 286 nan nan nan nan nan nan nan nan nan nan nan nan nan nan nan nan nan nan nan nan nan nan nan nan nan nan nan nan nan nan nan nan nan nan
245 nan nan nan nan 245 nan 243 243 246 248 nan nan nan nan nan nan nan 258 264 269 270 nan nan nan 273 272 273 274 274 270 267 273 283 285 283 283 283 285 287 289 290 291 289 289 291 292 291 291 290 nan nan nan nan nan nan nan nan nan nan nan nan nan nan nan nan nan nan nan nan nan nan nan nan nan nan nan nan nan nan nan nan nan nan nan nan
nan nan 246 nan nan nan nan nan nan nan nan nan nan nan nan nan nan nan 255 256 258 nan nan nan nan 266 268 274 277 275 272 270 273 278 283 284 284 283 282 286 289 291 291 291 292 290 289 290 nan nan nan nan nan nan nan nan nan nan nan nan nan nan nan nan nan nan nan nan nan nan nan nan nan nan nan nan nan nan nan nan nan nan nan nan nan nan
nan nan nan nan nan nan nan nan nan nan 251 nan nan nan nan nan nan nan nan nan nan nan nan nan nan nan 264 nan 273 273 272 273 275 278 279 278 281 285 289 291 290 288 288 288 287 287 nan nan nan nan nan nan nan nan nan nan nan nan nan nan nan nan nan nan nan nan nan nan nan nan nan nan nan nan nan nan nan nan nan nan nan nan nan nan nan nan